Terminal Aerodrome Forecast
Issued by NWS Chicago, IL

Home | Current Version | Previous Version | Graphics & Text | Print | Product List | Glossary On
Versions: 1 2 3 4 5 6 7 8 9 10 11 12 13 14 15 16 17 18 19 20 21 22 23 24 25 26
000
FTUS43 KLOT 271502 AAB
TAFRFD
TAF AMD
KRFD 271502Z 2715/2812 12006KT P6SM OVC007
     FM271730 18008KT P6SM BKN012 BKN050
     FM271900 20011KT P6SM BKN035 BKN080
     FM280100 VRB04KT P6SM SCT030 BKN250
     FM280700 02005KT P6SM BKN025=

USA.gov is the U.S. government's official web portal to all federal, state and local government web resources and services.